TimeCDT,TemperatureF,Dew PointF,Humidity,Sea Level PressureIn,VisibilityMPH,Wind Direction,Wind SpeedMPH,Gust SpeedMPH,PrecipitationIn,Events,Conditions,WindDirDegrees,DateUTC
12:53 AM,55.9,41.0,57,29.89,10.0,South,9.2,-,N/A,,Clear,170,2012-10-03 05:53:00
1:53 AM,55.0,39.9,57,29.89,10.0,South,5.8,-,N/A,,Clear,190,2012-10-03 06:53:00
2:53 AM,54.0,39.0,57,29.89,10.0,South,3.5,-,N/A,,Clear,190,2012-10-03 07:53:00
3:53 AM,50.0,42.1,74,29.89,10.0,SSW,5.8,-,N/A,,Clear,210,2012-10-03 08:53:00
4:53 AM,54.0,41.0,62,29.88,10.0,SSW,8.1,-,N/A,,Clear,200,2012-10-03 09:53:00
5:53 AM,53.1,42.1,66,29.88,10.0,South,6.9,-,N/A,,Clear,180,2012-10-03 10:53:00
6:53 AM,52.0,42.1,69,29.88,10.0,SSW,5.8,-,N/A,,Clear,200,2012-10-03 11:53:00
7:53 AM,54.0,42.1,64,29.89,10.0,South,8.1,-,N/A,,Clear,190,2012-10-03 12:53:00
8:53 AM,59.0,43.0,55,29.89,10.0,South,12.7,-,N/A,,Clear,180,2012-10-03 13:53:00
9:53 AM,66.0,42.1,42,29.89,10.0,South,20.7,26.5,N/A,,Clear,190,2012-10-03 14:53:00
10:53 AM,70.0,45.0,41,29.88,10.0,South,18.4,-,N/A,,Clear,190,2012-10-03 15:53:00
11:53 AM,75.0,46.9,37,29.87,10.0,South,19.6,27.6,N/A,,Clear,190,2012-10-03 16:53:00
12:53 PM,78.1,48.0,35,29.84,10.0,SSW,20.7,28.8,N/A,,Clear,200,2012-10-03 17:53:00
1:53 PM,80.1,48.9,34,29.81,10.0,South,21.9,27.6,N/A,,Clear,180,2012-10-03 18:53:00
2:53 PM,82.0,48.9,31,29.79,10.0,South,23.0,32.2,N/A,,Clear,190,2012-10-03 19:53:00
3:53 PM,82.0,48.9,31,29.79,10.0,South,24.2,29.9,N/A,,Clear,170,2012-10-03 20:53:00
4:53 PM,81.0,48.9,33,29.78,10.0,South,21.9,31.1,N/A,,Clear,180,2012-10-03 21:53:00
5:53 PM,80.1,50.0,35,29.78,10.0,South,25.3,32.2,N/A,,Clear,180,2012-10-03 22:53:00
6:53 PM,75.9,50.0,40,29.80,10.0,South,17.3,29.9,N/A,,Clear,180,2012-10-03 23:53:00
7:53 PM,72.0,51.1,48,29.83,10.0,South,13.8,-,N/A,,Clear,180,2012-10-04 00:53:00
8:53 PM,66.9,52.0,59,29.87,10.0,SSE,4.6,-,N/A,,Clear,160,2012-10-04 01:53:00
9:53 PM,69.1,51.1,53,29.86,10.0,SSE,16.1,-,N/A,,Clear,160,2012-10-04 02:53:00
10:53 PM,66.9,51.1,57,29.85,10.0,South,21.9,29.9,N/A,,Clear,170,2012-10-04 03:53:00
11:53 PM,66.0,52.0,60,29.86,10.0,South,18.4,25.3,N/A,,Clear,170,2012-10-04 04:53:00